Weather Service Report


937 
ASUS41 KAKQ 241315
RWRAKQ

REGIONAL WEATHER ROUNDUP
NATIONAL WEATHER SERVICE WAKEFIELD VA
900 AM EDT WED MAY 24 2017

Note: "fair" indicates few or no clouds below 12,000 feet with no
significant weather and/or obstructions to visibility. * = Denotes
station may not report precipitation (e.g., rain,snow,etc.),
thunder or fog.

VAZ042-051-052>054-056-241400-
NORTHERN VIRGINIA
  
CITY           SKY/WX    TMP DP  RH WIND       PRES   REMARKS
WASH NATIONAL  CLOUDY    61  54  77 NE8       29.75S                  
DULLES         CLOUDY    59  54  83 E6        29.74S                  
FORT BELVOIR   CLOUDY    59  55  85 CALM      29.73F                  
QUANTICO       CLOUDY    60  58  92 NE7       29.74S                  
FREDERICKSBRG* CLOUDY    58  58 100 NE3       29.73S                  
STAFFORD*      CLOUDY    58  58 100 NE5       29.77S                  
WARRENTON      CLOUDY    59  55  87 NE5       29.73S                  
CULPEPER*      CLOUDY    60  58  96 CALM      29.75R                  
MANASSAS*      CLOUDY    59  56  89 E6        29.74F                  
LEESBURG*      CLOUDY    59  59 100 CALM      29.75S FOG              
WINCHESTER     DRIZZLE   55  54  94 E6        29.74R                  
FRONT ROYAL*   CLOUDY    57  55  94 E3        29.72S                  
LURAY*         CLOUDY    59  59 100 NE5       29.73R                  
$$

VAZ048-049-060>072-079>083-241400-
CENTRAL AND SOUTH CENTRAL VIRGINIA
  
CITY           SKY/WX    TMP DP  RH WIND       PRES   REMARKS
RICHMOND       CLOUDY    60  58  92 E5        29.71S                  
CHESTERFIELD*  NOT AVBL                                               
PETERSBURG*    CLOUDY    60  58  94 CALM      29.72S                  
HANOVER        CLOUDY    60  56  86 VRB3      29.73S                  
TAPPAHANNOCK*  CLOUDY    61  61 100 NE6       29.72S                  
QUINTON*       CLOUDY    59  59 100 MISG      29.72R                  
CHARLOTTSVILLE CLOUDY    59  56  89 NE5       29.74R FOG              
GORDONSVILLE*  CLOUDY    57  56  97 NE3       29.74R                  
ORANGE*        CLOUDY    55  54  94 CALM      29.74R                  
LOUISA*        CLOUDY    61  59  94 NE3       29.72S                  
BUMPASS*       CLOUDY    57  57 100 CALM      29.73R                  
FARMVILLE*     CLOUDY    60  56  87 NE6       29.71S                  
CREWE*         CLOUDY    59  55  86 CALM      29.72R                  
FORT PICKETT*  CLOUDY   N/A N/A N/A E6        29.72R                  
CHASE CITY*    CLOUDY    58  57  94 CALM      29.72R                  
CLARKSVILLE*   CLOUDY    59  59 100 E6        29.70S                  
SOUTH HILL*    CLOUDY    59  59 100 CALM      29.77R                  
LAWRENCEVILLE* CLOUDY    60  59  97 NE6       29.71S                  
EMPORIA*       CLOUDY    61  59  94 N3        29.73S                  
$$

VAZ088>098-241400-
SOUTHEAST VIRGINIA
  
CITY           SKY/WX    TMP DP  RH WIND       PRES   REMARKS
NORFOLK        CLOUDY    60  58  92 NE12      29.71R                  
VIRGINIA BEACH CLOUDY    59  57  93 NE7       29.70R                  
NORFOLK NAVAL  DRIZZLE   61  58  90 NE10      29.72R FOG              
WEST POINT*    CLOUDY    61  60  96 NE5       29.73S                  
SALUDA*        CLOUDY    60  59  99 NE6       29.72R                  
NEWPORT NEWS   CLOUDY    62  60  93 E7        29.70S                  
LANGLEY AFB    CLOUDY    61  61 100 NE12      29.70S FOG              
FORT EUSTIS    CLOUDY    62  59  91 NE5       29.68S                  
WILLIAMSBURG*  CLOUDY    63  63 100 CALM      29.72S                  
HR EXEC AP*    CLOUDY    63  59  88 E6        29.70R                  
FRANKLIN*      CLOUDY    62  60  94 N3        29.72R                  
US460-WAKEFLD  CLOUDY    61  60  97 VRB3      29.71R                  
$$

VAZ020-022-025-037-045-241400-
WEST CENTRAL AND SOUTHWEST VIRGINIA
  
CITY           SKY/WX    TMP DP  RH WIND       PRES   REMARKS
STAUNTON*      CLOUDY    57  54  89 E3        29.75R                  
WAYNESBORO*    CLOUDY    55  55 100 SE7       29.74R                  
HOT SPRINGS VA RAIN      43  41  93 E7        29.73F VSB<1/4          
LYNCHBURG      CLOUDY    57  56  96 NE8       29.72S FOG              
DANVILLE       CLOUDY    59  59 100 NE7       29.70R FOG              
SOUTH BOSTON*  CLOUDY    59  58  96 E6        29.70S                  
MARTINSVILLE   DRIZZLE   59  58  96 NE3       29.72R                  
ROANOKE        CLOUDY    58  57  97 E7        29.72F                  
BLACKSBURG     CLOUDY    57  55  94 E7        29.73S                  
DUBLIN*        CLOUDY    58  56  91 E6        29.71R                  
MARION*        CLOUDY    58  56  91 NE8       29.69F                  
HILLSVILLE*    CLOUDY    57  53  86 CALM      29.69R FOG              
RICHLANDS*     FAIR      60  57  89 SE9       29.64S                  
WISE*          CLOUDY    61  61 100 S6        29.64S                  
ABINGDON*      CLOUDY    64  61  91 SE7       29.64S                  
$$

MDZ021>025-VAZ099-100-241400-
SOUTHERN MARYLAND AND THE DELMARVA PENINSULA
  
CITY           SKY/WX    TMP DP  RH WIND       PRES   REMARKS
PATUXENT RIVER CLOUDY    61  61 100 N8        29.72S                  
BAY BRIDGE APT CLOUDY    59  54  82 N3        29.75S                  
LEONARDTOWN    CLOUDY    59  55  88 CALM      29.74R                  
DOVER          CLOUDY    59  59 100 N5        29.72R                  
GEORGETOWN     LGT RAIN  60  58  92 NE6       29.73R FOG              
EASTON         CLOUDY    59  57  94 CALM      29.77R FOG              
CAMBRIDGE      CLOUDY    59  57  94 N5        29.73R                  
SALISBURY      CLOUDY    59  59 100 NE6       29.72R FOG              
OCEAN CITY     CLOUDY    59  57  93 NE9       29.71R FOG              
WALLOPS ISLAND CLOUDY    60  59  96 NE15      29.70R                  
ACCOMACK*      CLOUDY    60  47  63 NE3       29.71R                  
$$

NCZ012>017-030>032-241400-
NORTH CENTRAL AND EASTERN NORTH CAROLINA
  
CITY           SKY/WX    TMP DP  RH WIND       PRES   REMARKS
ROANOKE RAPIDS DRIZZLE   63  63 100 NE5       29.70S                  
RALEIGH        CLOUDY    67  64  90 E3        29.68S                  
ELIZABETH CITY CLOUDY    63  63 100 N9        29.70R                  
AHOSKIE*         N/A     62  61  97 NE5       29.70S                  
EDENTON*       CLOUDY    65  64  94 CALM      29.70R FOG              
CURRITUCK*     CLOUDY    62  62 100 NE7       29.71R FOG              
KILL DEVIL HLS CLOUDY    64  64 100 CALM      29.68S FOG              
MANTEO         DRIZZLE   65  64  99 N5        29.70R                  
CAPE HATTERAS  CLOUDY    72  67  84 VRB7      29.70R                  
TARBORO*       NOT AVBL                                               
GOLDSBORO      CLOUDY    70  70 100 W5        29.67R                  
WASHINGTON     CLOUDY    69  67  94 NW3       29.69R                  
GREENVILLE     CLOUDY    68  68 100 N3        29.72R FOG              
NEW BERN       CLOUDY    70  68  93 SW3       29.71R                  
WILMINGTON     PTSUNNY   73  69  87 SW6       29.70R                  
$$

VAZ048-241400-
ELSEWHERE
  
CITY           SKY/WX    TMP DP  RH WIND       PRES   REMARKS
HARRISBURG PA  CLOUDY    60  56  86 CALM      29.75F                  
BALTIMORE      CLOUDY    62  55  77 NE5       29.74S                  
ANNAPOLIS      CLOUDY    62  55  77 NE5       29.74F                  
ANDREWS AFB    CLOUDY    59  54  82 NE6       29.74R                  
PHILADELPHIA   CLOUDY    60  53  77 E9        29.75R                  
HENDERSON NC   CLOUDY    58  57  97 NE8       29.69S FOG              
GREENSBORO     DRIZZLE   62  62 100 E5        29.67S FOG              
ROCKY MOUNT    CLOUDY    65  65 100 NE6       29.69R                  
$$

VAZ100-241400-
MARINE
  
STATION/POSITION TIME  TEMP    WIND        PRES    WAVE   SWELL
                       AIR SEA DIR/SP/G            HT/PER HT/PER
                 (UTC) (F)     (DEG/KT/KT) (MB)    (FT/S) (FT/S)
CAPE MAY NJ      1248   58 60   70/  5/ 10 1005.9R
LEWES DE         1248   58 62   80/ 11/ 13 1006.4R
15NM E FENWICK I 1250   57 56   20/ 14/ 16 1006.0R   4/ 5   3/ 7
WACHAPREAGUE VA  1248   61 63   40/ 17/ 21 1005.2R
THOMAS POINT MD  1300   59 64   40/  7/  9   N/A
GOOSES REEF MD   1250   59      20/ 10/ 12 1007.5R
COVE POINT MD    1248   59      20/  8/ 10 1007.3R
SOLOMONS ISLAND  1248   60 66   30/  5/  7   N/A
BISHOPS HEAD MD  1248   59 64  340/  7/  9 1006.5R
PINEY POINT MD   1248           70/  4/  7   N/A
POTOMAC MD       1250   60      20/  6/ 10 1005.6R
CAMBRIDGE MD     1248   59 68                N/A
LEWISETTA VA     1248   60 66   50/  5/  7 1006.3R
RAPPAHANNOCK LGT 1248           40/ 13/ 14 1006.4R
STINGRAY PT      1250   61      70/ 12/ 14 1005.6R
YORK RVR RNG VA  1248   61      50/ 12/ 13 1005.3R
YORKTOWN VA      1248   61 68   60/  9/ 11 1005.7R
JAMESTOWN VA     1250   60      40/  4/  6   N/A
DOMINION TERM VA 1248   61      40/  5/  9 1005.8R
KIPTOPEKE VA     1248      65                N/A
CHES BAY BRIDGE  1248   60 66   60/ 13/ 18 1005.6R
CAPE HENRY VA    1248   60      30/ 15/ 17   N/A
WILLOUBY STN VA  1248   61      50/ 13/ 15 1005.8R
S CRANEY ISL VA  1248   61      40/ 12/ 13 1005.7R
CAPE HENRY BUOY  1242      62                N/A     4/ 5
1ST LANDING BUOY 1250   61                 1006.0R
CAPE CHARLES BUO 1251      62                N/A     4/ 5
64NM E OF VA BCH 1250   62 64  340/  6/  8 1005.2R   5/ 8   5/ 8
DUCK PIER NC     1248   61 63   10/  8/  9 1005.1R
44100 DUCK FRF   1235      63                N/A     4/ 7   2/11
44056 DUCK FRF   1230      64                N/A     3/ 7
OREGON INLET NC  1242   65 71  360/  7/ 10 1005.2R
HATTERAS NC      1248   72 73  270/  8/ 11 1005.6R
DIAMOND SHLS NC  1250   73 74  270/ 12/ 12 1005.5R   5/ 8   3/ 8
CAPE LOOKOUT NC  1300   72     250/  5/  5 1005.8R
$$
  

Return to Home page


Western Regional Climate Center, wrcc@dri.edu